LHA8LH KPAE-KBZN

Flight info

Callsign LHA8LH
Flight time N/A
Altitude 39000
Route SEA DCT NORMY DCT MODDA DCT STEVS DCT EATZZ
Aircraft B737/M-SDE1E2FGIJ1RWYZ/S

Departure

Time 2026-04-26 10:12
Airport Seattle Paine Field International Airport (KPAE)

Arrival

Time N/A
Airport Bozeman Yellowstone International Airport (KBZN)
Time Latitude Longitude Altitude Speed Heading
2026-04-26 09:54 47.91524 -122.28162 569 ft 0 kts 268°
2026-04-26 10:05 47.91524 -122.28157 569 ft 4 kts 268°
2026-04-26 10:05 47.91524 -122.28114 566 ft 4 kts 275°
2026-04-26 10:05 47.91520 -122.28082 570 ft 2 kts 295°
2026-04-26 10:06 47.91513 -122.28067 575 ft 2 kts 323°
2026-04-26 10:06 47.91503 -122.28059 577 ft 2 kts 347°
2026-04-26 10:06 47.91492 -122.28057 574 ft 2 kts 357°
2026-04-26 10:06 47.91481 -122.28057 570 ft 2 kts
2026-04-26 10:07 47.91479 -122.28057 570 ft 0 kts
2026-04-26 10:08 47.91490 -122.28056 574 ft 4 kts
2026-04-26 10:08 47.91528 -122.28056 570 ft 7 kts
2026-04-26 10:08 47.91589 -122.28051 573 ft 10 kts
2026-04-26 10:09 47.91670 -122.28048 571 ft 13 kts 360°
2026-04-26 10:09 47.91770 -122.28049 568 ft 16 kts 359°
2026-04-26 10:09 47.91882 -122.28048 570 ft 16 kts
2026-04-26 10:09 47.91989 -122.28047 570 ft 15 kts 360°
2026-04-26 10:10 47.92093 -122.28049 567 ft 15 kts 359°
2026-04-26 10:10 47.92159 -122.28129 568 ft 14 kts 278°
2026-04-26 10:10 47.92167 -122.28270 571 ft 13 kts 267°
2026-04-26 10:10 47.92159 -122.28405 573 ft 13 kts 265°
2026-04-26 10:11 47.92151 -122.28536 579 ft 13 kts 260°
2026-04-26 10:11 47.92055 -122.28585 573 ft 30 kts 180°
2026-04-26 10:11 47.91575 -122.28573 575 ft 106 kts 179°
2026-04-26 10:11 47.90638 -122.28515 692 ft 153 kts 174°
2026-04-26 10:12 47.89597 -122.28367 1504 ft 146 kts 173°
2026-04-26 10:12 47.88532 -122.28212 2033 ft 163 kts 176°
2026-04-26 10:12 47.87348 -122.28112 2582 ft 181 kts 178°
2026-04-26 10:12 47.85999 -122.28047 2901 ft 212 kts 179°
2026-04-26 10:13 47.84406 -122.28019 3136 ft 240 kts 180°
2026-04-26 10:13 47.82674 -122.28034 3383 ft 264 kts 181°
2026-04-26 10:13 47.80790 -122.28093 3997 ft 276 kts 181°
2026-04-26 10:13 47.78860 -122.28186 4948 ft 279 kts 182°
2026-04-26 10:14 47.76915 -122.28303 5939 ft 281 kts 182°
2026-04-26 10:14 47.74958 -122.28438 6928 ft 283 kts 182°
2026-04-26 10:14 47.72974 -122.28585 7912 ft 287 kts 182°
2026-04-26 10:14 47.70970 -122.28742 8965 ft 290 kts 182°
2026-04-26 10:15 47.68939 -122.28904 10001 ft 294 kts 182°
2026-04-26 10:15 47.66854 -122.29073 10666 ft 311 kts 182°
2026-04-26 10:15 47.64585 -122.29258 10946 ft 339 kts 182°
2026-04-26 10:15 47.62189 -122.29455 11670 ft 350 kts 182°
2026-04-26 10:16 47.59740 -122.29659 12561 ft 356 kts 182°
2026-04-26 10:16 47.57247 -122.29866 13465 ft 362 kts 182°
2026-04-26 10:16 47.54712 -122.30075 14313 ft 368 kts 182°
2026-04-26 10:16 47.52137 -122.30288 15191 ft 373 kts 182°
2026-04-26 10:17 47.49529 -122.30267 16073 ft 378 kts 169°
2026-04-26 10:17 47.47065 -122.28980 16954 ft 379 kts 147°
2026-04-26 10:17 47.45069 -122.26474 17845 ft 378 kts 126°
2026-04-26 10:17 47.43793 -122.23110 18634 ft 376 kts 105°
2026-04-26 10:18 47.43324 -122.19343 19409 ft 373 kts 89°
2026-04-26 10:18 47.43267 -122.15501 20192 ft 376 kts 86°
2026-04-26 10:18 47.43270 -122.11608 20942 ft 382 kts 86°
2026-04-26 10:18 47.43282 -122.07668 21689 ft 386 kts 86°
2026-04-26 10:19 47.43281 -122.03675 22433 ft 392 kts 86°
2026-04-26 10:19 47.43265 -121.99622 23155 ft 397 kts 86°
2026-04-26 10:19 47.43237 -121.95527 23800 ft 401 kts 86°
2026-04-26 10:19 47.43201 -121.91385 24426 ft 405 kts 87°
2026-04-26 10:20 47.43160 -121.87269 25034 ft 408 kts 86°
2026-04-26 10:20 47.43131 -121.84435 25441 ft 410 kts 87°
2026-04-26 10:20 47.43074 -121.78829 26208 ft 415 kts 87°
2026-04-26 10:20 47.43028 -121.74551 26781 ft 418 kts 87°
2026-04-26 10:21 47.42977 -121.70234 27336 ft 423 kts 87°
2026-04-26 10:21 47.42895 -121.65876 27891 ft 427 kts 88°
2026-04-26 10:21 47.42803 -121.61481 28434 ft 430 kts 88°
2026-04-26 10:21 47.42711 -121.57043 28971 ft 433 kts 88°
2026-04-26 10:22 47.42584 -121.52583 29459 ft 438 kts 91°
2026-04-26 10:22 47.42088 -121.48110 29891 ft 447 kts 100°
2026-04-26 10:22 47.41312 -121.43653 30316 ft 450 kts 102°
2026-04-26 10:22 47.40480 -121.39168 30698 ft 453 kts 102°
2026-04-26 10:23 47.39638 -121.34678 31063 ft 456 kts 102°
2026-04-26 10:23 47.38798 -121.30161 31402 ft 458 kts 102°
2026-04-26 10:23 47.37963 -121.25606 31734 ft 461 kts 102°
2026-04-26 10:23 47.37132 -121.21031 32110 ft 462 kts 102°
2026-04-26 10:24 47.36306 -121.16456 32566 ft 461 kts 102°
2026-04-26 10:24 47.35484 -121.11895 33027 ft 460 kts 102°
2026-04-26 10:24 47.34661 -121.07336 33448 ft 460 kts 102°
2026-04-26 10:24 47.33838 -121.02785 33840 ft 460 kts 102°
2026-04-26 10:25 47.33010 -120.98222 34170 ft 460 kts 102°
2026-04-26 10:25 47.32192 -120.93725 34488 ft 460 kts 103°
2026-04-26 10:25 47.31350 -120.89113 34818 ft 460 kts 103°
2026-04-26 10:25 47.30518 -120.84564 35123 ft 460 kts 103°
2026-04-26 10:26 47.29683 -120.80012 35405 ft 460 kts 103°
2026-04-26 10:26 47.28858 -120.75522 35704 ft 460 kts 103°
2026-04-26 10:26 47.28020 -120.70978 36022 ft 460 kts 103°
2026-04-26 10:26 47.27181 -120.66432 36316 ft 460 kts 103°
2026-04-26 10:27 47.26340 -120.61886 36590 ft 460 kts 103°
2026-04-26 10:27 47.25496 -120.57341 36883 ft 460 kts 103°
2026-04-26 10:27 47.24675 -120.52788 37163 ft 460 kts 101°
2026-04-26 10:27 47.24067 -120.48171 37445 ft 459 kts 98°
2026-04-26 10:28 47.23554 -120.43535 37723 ft 459 kts 97°
2026-04-26 10:28 47.23077 -120.38897 37994 ft 459 kts 97°
2026-04-26 10:28 47.22604 -120.34250 38279 ft 459 kts 97°
2026-04-26 10:28 47.22123 -120.29609 38527 ft 459 kts 97°
2026-04-26 10:29 47.21628 -120.24957 38730 ft 460 kts 97°
2026-04-26 10:29 47.21122 -120.20314 38862 ft 462 kts 97°
2026-04-26 10:29 47.20077 -120.10937 38855 ft 465 kts 98°
2026-04-26 10:30 47.19019 -120.01606 38843 ft 459 kts 98°
2026-04-26 10:30 47.17965 -119.92378 38855 ft 457 kts 98°
2026-04-26 10:31 47.16910 -119.83192 38851 ft 455 kts 98°
2026-04-26 10:31 47.15850 -119.74026 38853 ft 455 kts 98°
2026-04-26 10:32 47.14783 -119.64864 38863 ft 455 kts 98°
2026-04-26 10:32 47.13707 -119.55689 38871 ft 457 kts 98°
2026-04-26 10:33 47.12626 -119.46542 38873 ft 459 kts 98°
2026-04-26 10:33 47.11526 -119.37301 38861 ft 460 kts 98°
2026-04-26 10:34 47.10414 -119.28027 38865 ft 462 kts 99°
2026-04-26 10:34 47.09291 -119.18724 38880 ft 463 kts 99°
2026-04-26 10:35 47.08159 -119.09412 38902 ft 464 kts 99°
2026-04-26 10:35 47.07016 -119.00081 38923 ft 465 kts 99°
2026-04-26 10:36 47.05866 -118.90754 38936 ft 465 kts 99°
2026-04-26 10:36 47.04709 -118.81438 38944 ft 464 kts 99°
2026-04-26 10:37 47.03544 -118.72127 38938 ft 464 kts 99°
2026-04-26 10:37 47.02374 -118.62838 38923 ft 463 kts 99°
2026-04-26 10:38 47.01198 -118.53560 38912 ft 463 kts 99°
2026-04-26 10:38 47.00016 -118.44300 38902 ft 462 kts 99°
2026-04-26 10:39 46.98827 -118.35048 38892 ft 462 kts 100°
2026-04-26 10:39 46.97639 -118.25867 38879 ft 462 kts 100°
2026-04-26 10:40 46.96436 -118.16631 38877 ft 462 kts 100°
2026-04-26 10:40 46.95226 -118.07400 38861 ft 462 kts 100°
2026-04-26 10:41 46.94008 -117.98169 38849 ft 462 kts 100°
2026-04-26 10:41 46.92782 -117.88937 38848 ft 462 kts 100°
2026-04-26 10:42 46.91758 -117.81269 38850 ft 463 kts 100°
2026-04-26 10:42 46.90306 -117.70472 38846 ft 463 kts 101°
2026-04-26 10:43 46.89054 -117.61232 38850 ft 463 kts 101°
2026-04-26 10:43 46.87795 -117.51990 38857 ft 464 kts 101°
2026-04-26 10:44 46.86527 -117.42745 38858 ft 464 kts 101°
2026-04-26 10:44 46.85251 -117.33506 38853 ft 464 kts 101°
2026-04-26 10:45 46.83966 -117.24255 38856 ft 465 kts 101°
2026-04-26 10:45 46.82674 -117.15011 38849 ft 465 kts 101°
2026-04-26 10:46 46.81375 -117.05772 38853 ft 465 kts 101°
2026-04-26 10:46 46.80289 -116.98092 38850 ft 465 kts 101°
2026-04-26 10:47 46.78975 -116.88852 38858 ft 465 kts 101°
2026-04-26 10:47 46.77653 -116.79615 38862 ft 465 kts 102°
2026-04-26 10:48 46.76324 -116.70386 38870 ft 465 kts 102°
2026-04-26 10:48 46.74986 -116.61153 38865 ft 465 kts 102°
2026-04-26 10:49 46.73639 -116.51914 38868 ft 465 kts 102°
2026-04-26 10:49 46.72287 -116.42690 38873 ft 466 kts 102°
2026-04-26 10:50 46.70935 -116.33523 38876 ft 466 kts 102°
2026-04-26 10:50 46.69566 -116.24298 38881 ft 466 kts 102°
2026-04-26 10:51 46.67498 -116.10462 38881 ft 466 kts 102°
2026-04-26 10:52 46.66109 -116.01236 38892 ft 467 kts 102°
2026-04-26 10:52 46.64712 -115.92015 38894 ft 467 kts 102°
2026-04-26 10:53 46.63305 -115.82777 38899 ft 467 kts 102°
2026-04-26 10:53 46.61890 -115.73542 38901 ft 468 kts 102°
2026-04-26 10:54 46.59752 -115.59687 38902 ft 468 kts 103°
2026-04-26 10:54 46.58316 -115.50451 38906 ft 469 kts 103°
2026-04-26 10:55 46.56871 -115.41208 38907 ft 469 kts 103°
2026-04-26 10:55 46.55418 -115.31962 38906 ft 470 kts 103°
2026-04-26 10:56 46.53956 -115.22714 38902 ft 470 kts 103°
2026-04-26 10:56 46.52495 -115.13526 38907 ft 470 kts 103°
2026-04-26 10:57 46.51016 -115.04275 38899 ft 471 kts 103°
2026-04-26 10:57 46.49529 -114.95024 38903 ft 471 kts 103°
2026-04-26 10:58 46.48033 -114.85772 38893 ft 471 kts 103°
2026-04-26 10:58 46.46527 -114.76508 38893 ft 472 kts 103°
2026-04-26 10:59 46.45013 -114.67247 38888 ft 472 kts 103°
2026-04-26 10:59 46.43491 -114.57988 38891 ft 472 kts 103°
2026-04-26 11:00 46.41961 -114.48727 38895 ft 473 kts 103°
2026-04-26 11:00 46.40422 -114.39467 38891 ft 473 kts 104°
2026-04-26 11:01 46.38872 -114.30192 38901 ft 474 kts 104°
2026-04-26 11:01 46.37315 -114.20920 38902 ft 474 kts 104°
2026-04-26 11:02 46.35748 -114.11642 38903 ft 474 kts 104°
2026-04-26 11:02 46.34174 -114.02367 38902 ft 475 kts 104°
2026-04-26 11:03 46.32590 -113.93087 38895 ft 475 kts 104°
2026-04-26 11:03 46.30998 -113.83809 38889 ft 475 kts 104°
2026-04-26 11:04 46.29409 -113.74598 38889 ft 475 kts 104°
2026-04-26 11:04 46.27802 -113.65330 38892 ft 475 kts 104°
2026-04-26 11:05 46.26180 -113.56026 38243 ft 483 kts 104°
2026-04-26 11:05 46.25357 -113.51326 37566 ft 481 kts 104°
2026-04-26 11:05 46.24538 -113.46653 36877 ft 480 kts 104°
2026-04-26 11:06 46.23717 -113.41990 36169 ft 479 kts 104°
2026-04-26 11:06 46.22896 -113.37331 35432 ft 479 kts 104°
2026-04-26 11:06 46.22069 -113.32657 34603 ft 482 kts 104°
2026-04-26 11:06 46.21234 -113.27950 33710 ft 485 kts 105°
2026-04-26 11:07 46.20395 -113.23229 32895 ft 484 kts 104°
2026-04-26 11:07 46.19561 -113.18552 32244 ft 478 kts 104°
2026-04-26 11:07 46.18737 -113.13939 31627 ft 472 kts 104°
2026-04-26 11:07 46.17920 -113.09382 31023 ft 466 kts 104°
2026-04-26 11:08 46.17113 -113.04888 30443 ft 460 kts 104°
2026-04-26 11:08 46.16314 -113.00449 29839 ft 454 kts 104°
2026-04-26 11:08 46.15524 -112.96071 29158 ft 448 kts 104°
2026-04-26 11:08 46.14744 -112.91760 28550 ft 441 kts 104°
2026-04-26 11:09 46.13975 -112.87519 27934 ft 434 kts 104°
2026-04-26 11:09 46.13214 -112.83335 27330 ft 428 kts 104°
2026-04-26 11:09 46.12463 -112.79213 26726 ft 423 kts 104°
2026-04-26 11:09 46.11719 -112.75136 26128 ft 418 kts 104°
2026-04-26 11:10 46.10982 -112.71106 25540 ft 414 kts 104°
2026-04-26 11:10 46.10249 -112.67110 24958 ft 410 kts 104°
2026-04-26 11:10 46.09523 -112.63159 24382 ft 406 kts 104°
2026-04-26 11:10 46.08802 -112.59243 23817 ft 403 kts 104°
2026-04-26 11:11 46.08085 -112.55358 23192 ft 401 kts 104°
2026-04-26 11:11 46.07371 -112.51492 22524 ft 397 kts 104°
2026-04-26 11:11 46.06662 -112.47667 21937 ft 393 kts 104°
2026-04-26 11:11 46.05961 -112.43886 21362 ft 389 kts 105°
2026-04-26 11:12 46.05264 -112.40141 20805 ft 386 kts 105°
2026-04-26 11:12 46.04571 -112.36422 20239 ft 383 kts 105°
2026-04-26 11:12 46.03882 -112.32736 19688 ft 380 kts 105°
2026-04-26 11:12 46.03198 -112.29078 19145 ft 377 kts 105°
2026-04-26 11:13 46.02516 -112.25441 18589 ft 376 kts 105°
2026-04-26 11:13 46.01836 -112.21820 18015 ft 374 kts 105°
2026-04-26 11:13 46.01159 -112.18223 17410 ft 372 kts 105°
2026-04-26 11:13 46.00484 -112.14646 16817 ft 368 kts 105°
2026-04-26 11:14 45.99818 -112.11114 16283 ft 364 kts 105°
2026-04-26 11:14 45.99170 -112.07689 16027 ft 353 kts 105°
2026-04-26 11:14 45.98536 -112.04349 15872 ft 340 kts 105°
2026-04-26 11:14 45.98039 -112.01064 15499 ft 335 kts 98°
2026-04-26 11:15 45.97789 -111.97758 15097 ft 330 kts 94°
2026-04-26 11:15 45.97616 -111.94484 14676 ft 327 kts 93°
2026-04-26 11:15 45.97450 -111.91235 14243 ft 325 kts 93°
2026-04-26 11:15 45.97274 -111.88011 13818 ft 323 kts 94°
2026-04-26 11:16 45.97085 -111.84805 13346 ft 321 kts 94°
2026-04-26 11:16 45.96887 -111.81626 12876 ft 318 kts 94°
2026-04-26 11:16 45.96684 -111.78477 12440 ft 315 kts 95°
2026-04-26 11:16 45.96480 -111.75364 12018 ft 311 kts 95°
2026-04-26 11:17 45.96276 -111.72291 11592 ft 308 kts 95°
2026-04-26 11:17 45.96072 -111.69243 11165 ft 305 kts 95°
2026-04-26 11:17 45.95869 -111.66231 10753 ft 302 kts 95°
2026-04-26 11:17 45.95669 -111.63247 10340 ft 299 kts 96°
2026-04-26 11:18 45.95468 -111.60294 10008 ft 293 kts 96°
2026-04-26 11:18 45.95274 -111.57442 9851 ft 282 kts 96°
2026-04-26 11:18 45.95082 -111.54645 9441 ft 281 kts 96°
2026-04-26 11:18 45.94746 -111.51908 9092 ft 276 kts 104°
2026-04-26 11:19 45.94247 -111.49263 8719 ft 273 kts 106°
2026-04-26 11:19 45.93731 -111.46647 8345 ft 271 kts 106°
2026-04-26 11:19 45.93233 -111.44050 7981 ft 268 kts 105°
2026-04-26 11:19 45.92752 -111.41473 7618 ft 266 kts 105°
2026-04-26 11:20 45.92285 -111.38941 7483 ft 256 kts 105°
2026-04-26 11:20 45.91989 -111.37326 7395 ft 250 kts 105°
2026-04-26 11:20 45.91288 -111.34249 7187 ft 238 kts 123°
2026-04-26 11:20 45.90206 -111.32523 7030 ft 230 kts 136°
2026-04-26 11:21 45.89065 -111.30942 6797 ft 226 kts 136°
2026-04-26 11:21 45.87946 -111.29387 6589 ft 222 kts 136°
2026-04-26 11:21 45.86982 -111.28046 6407 ft 219 kts 136°
2026-04-26 11:21 45.86943 -111.27991 6402 ft 219 kts 136°